weather.gov     
National Weather Service

Regional Weather Roundup
NWS Homepage
This page is being discontinued on March 12, 2014.
The same data is available at this site. Please update your bookmarks.
Thank you, and we apologize for the inconvenience.
Please send an email to SR-SRH.Webmaster@noaa.gov with any concerns.


Current Version
Previous Version:    01  02  03  04  05  06  07  08  09  10  11  12  13  14  15  16  17  18  19  20  21  22  23  24  25  26  27  
[Printable]
772
ASUS45 KREV 240610
RWRNV
NEVADA REGIONAL WEATHER ROUNDUP
NATIONAL WEATHER SERVICE RENO NV
1100 PM PDT WED JUL 23 2014

NOTE: "FAIR" INDICATES FEW OR NO CLOUDS BELOW 12,000 FEET WITH NO
SIGNIFICANT WEATHER AND/OR OBSTRUCTIONS TO VISIBILITY.

NVZ001-003-004-240700-
WESTERN NEVADA

CITY           SKY/WX    TMP DP  RH WIND       PRES   REMARKS
RENO           CLEAR     73  41  31 NW9       30.14S
6HR MIN TEMP:  72; 6HR MAX TEMP:  86;

CARSON CITY    FAIR      64  39  39 E5        30.17S
SLIDE MTN        N/A     50  23  34 W36         N/A
FALLON         CLEAR     70  37  29 N5        30.10R
6HR MIN TEMP:  69; 6HR MAX TEMP:  95;

LOVELOCK       CLEAR     75  29  18 NW14      30.09R
6HR MIN TEMP:  74; 6HR MAX TEMP:  93;

HAWTHORNE      CLEAR     79  39  24 W16       30.10R
$$

NVZ002-CAZ072-073-240700-
NORTHERN AND CENTRAL SIERRA

CITY           SKY/WX    TMP DP  RH WIND       PRES   REMARKS
S. LAKE TAHOE  CLEAR     57  40  52 S5        30.27F
6HR MIN TEMP:  57; 6HR MAX TEMP:  76;

TRUCKEE        CLEAR     52  37  58 CALM      30.27F
SQUAW VLY 8000 NOT AVBL
BLUE CANYON    CLEAR     61  37  41 NE3       30.24F
MAMMOTH LAKES  FAIR      63  27  25 W5        30.30S
BRIDGEPORT     FAIR      55  31  39 VRB5      30.27S
$$

NVZ030-031-036-240700-
NORTHERN NEVADA

CITY           SKY/WX    TMP DP  RH WIND       PRES   REMARKS
ELKO           CLEAR     62  30  29 SW3       30.10R
6HR MIN TEMP:  62; 6HR MAX TEMP:  95;

WINNEMUCCA     CLEAR     71  28  20 W14       30.10R
6HR MIN TEMP:  71; 6HR MAX TEMP:  91;

WENDOVER       CLEAR     90  27  10 NW25G35   29.94S
$$

NVZ035-037-240700-
CENTRAL NEVADA

CITY           SKY/WX    TMP DP  RH WIND       PRES   REMARKS
ELY            CLEAR     72  19  13 S16       30.19R
6HR MIN TEMP:  69; 6HR MAX TEMP:  94;

EUREKA           N/A     60  28  29 S5        30.18R
6HR MIN TEMP:  58; 6HR MAX TEMP:  95;

$$

NVZ013-014-240700-
SOUTH CENTRAL NEVADA

CITY           SKY/WX    TMP DP  RH WIND       PRES   REMARKS
TONOPAH        CLEAR     78  22  12 E3        30.15R
6HR MIN TEMP:  78; 6HR MAX TEMP:  96;

$$

NVZ017-020-022-240700-
SOUTHERN NEVADA

CITY           SKY/WX    TMP DP  RH WIND       PRES   REMARKS
LAS VEGAS      PTCLDY    99  19   5 S16       29.83S
6HR MIN TEMP:  98; 6HR MAX TEMP: 110;

N. LAS VEGAS   CLEAR     99  20   6 S12       29.85S
6HR MIN TEMP:  98; 6HR MAX TEMP: 109;

NELLIS AFB     CLEAR     98  24   7 S14       29.83S
6HR MIN TEMP:  98; 6HR MAX TEMP: 110;

HENDERSON      CLEAR     92  22   8 S8        29.91S
6HR MIN TEMP:  92; 6HR MAX TEMP: 110;

MERCURY        CLEAR     92  19   7 SW14      29.96S
6HR MIN TEMP:  91; 6HR MAX TEMP: 104;

$$




U.S. Dept. of Commerce
NOAA National Weather Service
1325 East West Highway
Silver Spring, MD 20910
E-mail: w-nws.webmaster@noaa.gov
Page last modified: May 16, 2007
NATIONAL WEATHER SERVICE: for Safety, for Work, for Fun - FOR LIFE